Las Vegas, NV

6:51 PM PDT on July 23, 2016 (GMT -0700)
McCarran International | | Change Station

Elev 2178 ft 36.07 °N, 115.16 °W | Updated 55 minutes ago

Clear
Clear
111 °F
Feels Like 111 °F
N
14
Wind Variable Wind from SW
Gusts 21 mph

Today
High -- | Low -- °F
--% Chance of Precip.
Yesterday
High -- | Low -- °F
Precip. -- in
Pressure 29.61 in
Visibility 10.0 miles
Clouds Clear
Dew Point 26 °F
Humidity 5%
Rainfall 0.00 in
Snow Depth Not available.
5:41 AM 7:52 PM
Waning Gibbous, 81% visible
METAR KLAS 240056Z 23012G18KT 10SM CLR 44/M03 A2971 RMK AO2 SLP026 T04391033
Pressure 29.61 in
Visibility 10.0 miles
Clouds Clear
Dew Point 26 °F
Humidity 5%
Rainfall 0.00 in
Snow Depth Not available.
5:41 AM 7:52 PM
Waning Gibbous, 81% visible
METAR KLAS 240056Z 23012G18KT 10SM CLR 44/M03 A2971 RMK AO2 SLP026 T04391033

10-Day Weather Forecast

Almanac

Astronomy

Jul. 23, 2016 Rise Set
Actual Time
Civil Twilight
Nautical Twilight
Astronomical Twilight
Moon
Length of Visible Light
Length of Day
Tomorrow will be .
, % of the Moon is Illuminated

Today's Extremes

State Highs State Lows

Community

WunderPhotos

Upload Photos

1,926,996 photos uploaded!

WunderBlog® & News

Nearby

Air Quality

  Air Quality AQ Index Pollutant
Not available.

Snow Depth

Station Depth Elevation

Earthquake Activity

City Distance Mag. Time & Date
Minimum magnitude displayed is 2.5.

Coastal Water Temperatures

Place Temperature

Stations

Nearby Weather Stations

Station Location Temp. Windchill Dew Point Humidity Wind Precip. Elev Updated Type
                   

Watches & Warnings

There are currently no watches in effect.